Weather History for Petaluma, CA

Change the Weather History Date:

Tuesday, January 14, 2014

  Actual Average (KAPC) Record (KAPC)
Temperature  
Mean Temperature 47 °F 46 °F  
Max Temperature 66 °F 55 °F 68 °F (2014)
Min Temperature 28 °F 37 °F 23 °F (2007)
Degree Days  
Heating Degree Days 18    
Month to date heating degree days  
Since 1 July heating degree days  
Cooling Degree Days 0    
Month to date cooling degree days  
Year to date cooling degree days  
Moisture  
Dew Point 32 °F    
Average Humidity 72    
Maximum Humidity 100    
Minimum Humidity 28    
Precipitation  
Precipitation 0.00 in - 3.55 in (1970)
Month to date precipitation  
Year to date precipitation  
Since 1 July precipitation  
Sea Level Pressure  
Sea Level Pressure 30.41 in    
Wind  
Wind Speed 2 mph (SE)    
Max Wind Speed 12 mph    
Max Gust Speed -    
Visibility 9 miles    
Events      
T = Trace of Precipitation, MM = Missing Value Source: NWS Daily Summary

Daily Weather History Graph

Daily Weather History Graph

Search for Another Location

Airport:

Trip Planner

Search our weather history database for the weather conditions in past years. The results will help you decide how hot, cold, wet, or windy it might be!

Date:

Astronomy

Jan. 14, 2014 Rise Set
Actual Time 7:26 AM PST 5:13 PM PST
Civil Twilight 6:57 AM PST 5:42 PM PST
Nautical Twilight 6:24 AM PST 6:14 PM PST
Astronomical Twilight 5:52 AM PST 6:46 PM PST
Moon 4:22 PM PST (1/14) 6:05 AM PST (1/14)
Length of Visible Light 10h 45m
Length of Day
9h 47m
Waxing Gibbous, 98% of the Moon is Illuminated
Jan 14
Waxing Gibbous
Jan 15
Full
Jan 23
Last Quarter
Jan 30
New
Feb 6
First Quarter

Hourly Weather History & Observations

Time (PST) Temp. Windchill Dew Point Humidity Pressure Visibility Wind Dir Wind Speed Gust Speed Precip Events Conditions
12:15 AM 33.8 °F - 33.8 °F 100% 30.43 in 10.0 mi Calm Calm - N/A   Clear
12:35 AM 33.8 °F - 33.8 °F 100% 30.43 in 10.0 mi Calm Calm - N/A   Clear
12:55 AM 33.8 °F - 33.8 °F 100% 30.42 in 10.0 mi Calm Calm - N/A   Clear
1:15 AM 32.0 °F - 32.0 °F 100% 30.43 in 10.0 mi Calm Calm - N/A   Clear
1:35 AM 32.0 °F - 32.0 °F 100% 30.43 in 10.0 mi Calm Calm - N/A   Clear
1:55 AM 32.0 °F - 32.0 °F 100% 30.42 in 10.0 mi Calm Calm - N/A   Clear
2:15 AM 32.0 °F - 32.0 °F 100% 30.43 in 10.0 mi Calm Calm - N/A   Clear
2:35 AM 32.0 °F - 32.0 °F 100% 30.43 in 10.0 mi Calm Calm - N/A   Clear
2:55 AM 32.0 °F - 32.0 °F 100% 30.43 in 10.0 mi Calm Calm - N/A   Clear
3:15 AM 30.2 °F - 30.2 °F 100% 30.43 in 10.0 mi Calm Calm - N/A   Clear
3:35 AM 32.0 °F - 32.0 °F 100% 30.43 in 10.0 mi Calm Calm - N/A   Partly Cloudy
3:55 AM 30.2 °F - 30.2 °F 100% 30.43 in 10.0 mi Calm Calm - N/A   Clear
4:15 AM 30.2 °F - 30.2 °F 100% 30.43 in 7.0 mi Calm Calm - N/A   Clear
4:35 AM 28.4 °F - 28.4 °F 100% 30.43 in 6.0 mi Calm Calm - N/A   Clear
4:55 AM 28.4 °F - 28.4 °F 100% 30.43 in 1.2 mi Calm Calm - N/A   Clear
5:15 AM 30.2 °F - 30.2 °F 100% 30.43 in 7.0 mi Calm Calm - N/A   Clear
5:35 AM 28.4 °F - 28.4 °F 100% 30.44 in 9.0 mi Calm Calm - N/A   Clear
5:55 AM 28.4 °F - 28.4 °F 100% 30.44 in 7.0 mi Calm Calm - N/A   Clear
6:15 AM 28.4 °F - 28.4 °F 100% 30.45 in 7.0 mi Calm Calm - N/A   Clear
6:35 AM 28.4 °F - 28.4 °F 100% 30.45 in 5.0 mi Calm Calm - N/A   Clear
6:55 AM 28.4 °F - 28.4 °F 100% 30.46 in 7.0 mi Calm Calm - N/A   Clear
7:15 AM 28.4 °F - 28.4 °F 100% 30.46 in 10.0 mi Calm Calm - N/A   Clear
7:35 AM 28.4 °F - 28.4 °F 100% 30.47 in 7.0 mi Calm Calm - N/A   Clear
7:55 AM 28.4 °F - 28.4 °F 100% 30.46 in 7.0 mi Calm Calm - N/A   Clear
8:15 AM 32.0 °F - 32.0 °F 100% 30.47 in 9.0 mi Calm Calm - N/A   Clear
8:35 AM 33.8 °F - 33.8 °F 100% 30.48 in 9.0 mi Calm Calm - N/A   Clear
8:55 AM 37.4 °F - 37.4 °F 100% 30.48 in 10.0 mi Calm Calm - N/A   Clear
9:15 AM 39.2 °F - 39.2 °F 100% 30.49 in 10.0 mi Calm Calm - N/A   Clear
9:35 AM 41.0 °F - 41.0 °F 100% 30.49 in 10.0 mi Calm Calm - N/A   Clear
9:55 AM 48.2 °F - 37.4 °F 66% 30.49 in 10.0 mi South 4.6 mph - N/A   Clear
10:15 AM 50.0 °F - 35.6 °F 58% 30.49 in 10.0 mi SSE 5.8 mph - N/A   Clear
10:35 AM 53.6 °F - 35.6 °F 51% 30.48 in 10.0 mi South 4.6 mph - N/A   Clear
10:55 AM 53.6 °F - 35.6 °F 51% 30.48 in 10.0 mi SSE 6.9 mph - N/A   Clear
11:15 AM 57.2 °F - 35.6 °F 44% 30.47 in 10.0 mi SSE 6.9 mph - N/A   Clear
11:35 AM 59.0 °F - 32.0 °F 36% 30.45 in 10.0 mi SSE 8.1 mph - N/A   Clear
11:55 AM 59.0 °F - 32.0 °F 36% 30.44 in 10.0 mi SSE 8.1 mph - N/A   Clear
12:15 PM 60.8 °F - 32.0 °F 34% 30.43 in 10.0 mi SSE 11.5 mph - N/A   Clear
12:35 PM 60.8 °F - 32.0 °F 34% 30.42 in 10.0 mi SSE 8.1 mph - N/A   Clear
12:55 PM 62.6 °F - 32.0 °F 32% 30.40 in 10.0 mi SSE 9.2 mph - N/A   Clear
1:15 PM 62.6 °F - 32.0 °F 32% 30.39 in 10.0 mi SSE 9.2 mph - N/A   Clear
1:35 PM 64.4 °F - 32.0 °F 30% 30.39 in 10.0 mi SSE 6.9 mph - N/A   Clear
1:55 PM 64.4 °F - 30.2 °F 28% 30.38 in 10.0 mi SSE 6.9 mph - N/A   Clear
2:15 PM 64.4 °F - 32.0 °F 30% 30.38 in 10.0 mi SSE 6.9 mph - N/A   Clear
2:35 PM 64.4 °F - 32.0 °F 30% 30.38 in 10.0 mi SSE 9.2 mph - N/A   Clear
2:55 PM 64.4 °F - 32.0 °F 30% 30.38 in 10.0 mi SSE 6.9 mph - N/A   Clear
3:15 PM 66.2 °F - 32.0 °F 28% 30.38 in 10.0 mi SSE 6.9 mph - N/A   Clear
3:35 PM 64.4 °F - 32.0 °F 30% 30.38 in 10.0 mi SSE 6.9 mph - N/A   Clear
3:55 PM 64.4 °F - 30.2 °F 28% 30.38 in 10.0 mi SSE 6.9 mph - N/A   Clear
4:15 PM 64.4 °F - 32.0 °F 30% 30.37 in 10.0 mi North - - N/A   Clear
4:35 PM 62.6 °F - 32.0 °F 32% 30.37 in 10.0 mi SSE 5.8 mph - N/A   Clear
4:55 PM 59.0 °F - 35.6 °F 42% 30.38 in 10.0 mi Calm Calm - N/A   Clear
5:15 PM 57.2 °F - 33.8 °F 41% 30.37 in 10.0 mi East 3.5 mph - N/A   Clear
5:35 PM 53.6 °F - 32.0 °F 44% 30.37 in 10.0 mi ENE 4.6 mph - N/A   Clear
5:55 PM 50.0 °F - 32.0 °F 50% 30.37 in 10.0 mi ENE 4.6 mph - N/A   Clear
6:15 PM 48.2 °F - 32.0 °F 54% 30.37 in 10.0 mi Calm Calm - N/A   Clear
6:35 PM 46.4 °F - 32.0 °F 57% 30.37 in 10.0 mi Calm Calm - N/A   Clear
6:55 PM 44.6 °F - 32.0 °F 61% 30.37 in 10.0 mi Calm Calm - N/A   Clear
7:15 PM 44.6 °F 43.1 °F 32.0 °F 61% 30.36 in 10.0 mi East 3.5 mph - N/A   Clear
7:35 PM 41.0 °F 39.0 °F 30.2 °F 65% 30.37 in 10.0 mi East 3.5 mph - N/A   Clear
7:55 PM 42.8 °F - 32.0 °F 66% 30.36 in 10.0 mi Calm Calm - N/A   Clear
8:15 PM 41.0 °F - 32.0 °F 70% 30.36 in 10.0 mi Calm Calm - N/A   Clear
8:35 PM 42.8 °F - 32.0 °F 66% 30.36 in 10.0 mi Calm Calm - N/A   Clear
8:55 PM 39.2 °F - 32.0 °F 75% 30.36 in 10.0 mi Calm Calm - N/A   Clear
9:15 PM 39.2 °F - 32.0 °F 75% 30.36 in 10.0 mi Calm Calm - N/A   Clear
9:35 PM 37.4 °F - 32.0 °F 81% 30.36 in 10.0 mi Calm Calm - N/A   Partly Cloudy
9:55 PM 37.4 °F - 32.0 °F 81% 30.36 in 10.0 mi Calm Calm - N/A   Partly Cloudy
10:15 PM 37.4 °F - 32.0 °F 81% 30.36 in 10.0 mi Calm Calm - N/A   Clear
10:35 PM 37.4 °F - 32.0 °F 81% 30.36 in 10.0 mi Calm Calm - N/A   Partly Cloudy
10:55 PM 37.4 °F - 32.0 °F 81% 30.36 in 10.0 mi Calm Calm - N/A   Clear
11:15 PM 35.6 °F - 32.0 °F 87% 30.36 in 10.0 mi Calm Calm - N/A   Clear
11:35 PM 35.6 °F - 32.0 °F 87% 30.35 in 10.0 mi Calm Calm - N/A   Partly Cloudy
11:55 PM 35.6 °F - 32.0 °F 87% 30.35 in 10.0 mi Calm Calm - N/A   Clear